Wainwright, AK

7:55 PM AKST on February 06, 2016 (GMT -0900)
Wainwright

Weather History for PAWI - July, 2013

Change the Weather History Date:

Sunday, July 14, 2013

  Actual Average (PABR) Record (PABR)
Temperature  
Mean Temperature 62 °F 41 °F  
Max Temperature 79 °F 47 °F 78 °F (1927)
Min Temperature 46 °F 35 °F 24 °F (1934)
Degree Days  
Heating Degree Days 3 24  
Month to date heating degree days 339  
Since 1 June heating degree days 1219  
Since 1 July heating degree days 339  
Cooling Degree Days 0    
Month to date cooling degree days  
Year to date cooling degree days  
Since 1 June cooling degree days  
Growing Degree Days 12 (Base 50)    
Moisture  
Dew Point 48 °F    
Average Humidity 64    
Maximum Humidity 80    
Minimum Humidity 39    
Precipitation  
Precipitation 0.00 in 0.03 in 0.37 in (1925)
Month to date precipitation 0.40  
Year to date precipitation 1.42  
Snow  
Snow 0.00 in 0.00 in T in (2003)
Month to date snowfall 0.1  
Since 1 June snowfall 0.8  
Since 1 July snowfall 0.1  
Snow Depth -    
Sea Level Pressure  
Sea Level Pressure 29.96 in    
Wind  
Wind Speed 15 mph (East)    
Max Wind Speed 23 mph    
Max Gust Speed 30 mph    
Visibility 10 miles    
Events Rain    
T = Trace of Precipitation, MM = Missing Value Source: NWS Daily Summary

Daily Weather History Graph

Daily Weather History Graph

Search for Another Location

Airport or City:

Trip Planner

Search our weather history database for the weather conditions in past years. The results will help you decide how hot, cold, wet, or windy it might be!

Date:

Astronomy

Dec. 31, 1969 Rise Set
Actual Time Sun does not rise Sun does not rise
Civil Twilight Sun does not rise Sun does not rise
Nautical Twilight Sun does not rise Sun does not rise
Astronomical Twilight Sun does not rise Sun does not rise
Moon 2:44 PM AKDT (7/14) 12:26 AM AKDT (7/14)
Length of Visible Light 24h 00m
Length of Day
24h 00m
Waxing Crescent, 36% of the Moon is Illuminated
Jul 14
Waxing Crescent
Jul 15
First Quarter
Jul 22
Full
Jul 29
Last Quarter
Aug 6
New

Hourly Weather History & Observations

Time (AKDT) Temp. Dew Point Humidity Pressure Visibility Wind Dir Wind Speed Gust Speed Precip Events Conditions
12:53 AM 54.0 °F 42.1 °F 64% 30.02 in 10.0 mi East 15.0 mph - N/A   Clear
1:53 AM 52.0 °F 41.0 °F 66% 30.02 in 10.0 mi ENE 15.0 mph - N/A   Clear
2:53 AM 50.0 °F 41.0 °F 71% 30.01 in 10.0 mi ENE 13.8 mph - N/A   Clear
3:53 AM 48.0 °F 41.0 °F 77% 30.01 in 10.0 mi ENE 15.0 mph - N/A   Clear
4:53 AM 46.9 °F 41.0 °F 80% 30.00 in 10.0 mi ENE 15.0 mph - N/A   Clear
5:53 AM 48.0 °F 41.0 °F 77% 29.99 in 10.0 mi East 16.1 mph - N/A   Clear
6:53 AM 48.9 °F 41.0 °F 74% 29.98 in 10.0 mi East 17.3 mph 25.3 mph N/A   Clear
7:53 AM 48.9 °F 42.1 °F 77% 29.97 in 10.0 mi East 17.3 mph - N/A   Partly Cloudy
8:53 AM 51.1 °F 43.0 °F 74% 29.96 in 10.0 mi East 18.4 mph - N/A   Partly Cloudy
9:53 AM 55.0 °F 44.1 °F 67% 29.95 in 10.0 mi East 20.7 mph 27.6 mph N/A   Clear
10:53 AM 57.9 °F 45.0 °F 62% 29.95 in 10.0 mi East 23.0 mph 29.9 mph N/A   Clear
11:53 AM 61.0 °F 46.9 °F 60% 29.94 in 10.0 mi ESE 20.7 mph 27.6 mph N/A   Clear
12:53 PM 63.0 °F 48.9 °F 60% 29.94 in 10.0 mi ESE 21.9 mph - N/A   Clear
1:53 PM 64.9 °F 51.1 °F 61% 29.95 in 10.0 mi ESE 15.0 mph - N/A   Clear
2:53 PM 66.9 °F 52.0 °F 59% 29.95 in 10.0 mi ESE 11.5 mph - N/A   Clear
3:53 PM 72.0 °F 53.1 °F 51% 29.95 in 10.0 mi ESE 9.2 mph - N/A   Clear
4:53 PM 73.9 °F 54.0 °F 50% 29.94 in 10.0 mi ESE 6.9 mph - N/A   Clear
5:53 PM 73.9 °F 52.0 °F 46% 29.94 in 10.0 mi ESE 3.5 mph - N/A   Scattered Clouds
6:53 PM 78.1 °F 51.1 °F 39% 29.93 in 10.0 mi NNE 3.5 mph - 0.00 in   Partly Cloudy
7:53 PM 75.0 °F 55.0 °F 50% 29.92 in 10.0 mi East 9.2 mph - N/A   Clear
8:53 PM 73.9 °F 55.9 °F 53% 29.91 in 10.0 mi East 12.7 mph - N/A   Partly Cloudy
9:53 PM 66.9 °F 55.9 °F 68% 29.94 in 9.0 mi ESE 21.9 mph - 0.00 in Rain Light Rain
10:53 PM 64.0 °F 57.9 °F 80% 29.92 in 10.0 mi ENE 13.8 mph - 0.00 in   Scattered Clouds
11:53 PM 64.0 °F 55.9 °F 75% 29.92 in 10.0 mi ENE 13.8 mph - N/A   Clear